Regional Weather Roundup
Issued by NWS

Home | Current Version | Previous Version | Text Only | Print | Product List | Glossary On
Versions: 1 2 3 4 5 6 7 8 9 10 11 12 13 14 15 16 17 18 19 20 21 22 23 24 25 26 27 28 29 30 31 32 33 34 35 36 37 38 39 40 41 42 43 44 45 46 47 48 49 50
000
ASUS44 KLIX 300711
RWRLA
LOUISIANA WEATHER ROUNDUP
NATIONAL WEATHER SERVICE NEW ORLEANS LA
200 AM CDT MON MAY 30 2016

NOTE: "FAIR" INDICATES FEW OR NO CLOUDS BELOW 12,000 FEET WITH NO
      SIGNIFICANT WEATHER AND/OR OBSTRUCTIONS TO VISIBILITY.
      SKY/WX - SKY CONDITION AND SIGNIFICANT WEATHER.
      TMP - AIR TEMPERATURE.    DP   - DEWPOINT TEMPERATURE.
      RH  - RELATIVE HUMIDITY.  PRES - PRESSURE.
      HX  - HEAT INDEX.         WCI  - WIND CHILL INDEX.

*  THESE STATIONS ARE NOT NWS OR FAA STATIONS AND ARE NOT UNDER
   NWS QUALITY CONTROL.

LAZ040-048-061>063-065-066-069-300800-
SOUTHEAST LOUISIANA

CITY           SKY/WX    TMP DP  RH WIND       PRES   REMARKS
N.O. AUDUBON   NOT AVBL
N.O. INTL ARPT PTCLDY    75  71  87 W5        30.05F
N.O. LAKEFRONT CLEAR     80  69  69 W10       30.05F
N.O. DOWNTOWN* FAIR      79  70  74 VRB3      30.06F
RESERVE*       FAIR      75  72  91 CALM      30.04F
SLIDELL        MOCLDY    73  71  93 CALM      30.05F
BATON ROUGE    CLEAR     76  69  79 CALM      30.03F
BOOTHVILLE     PTCLDY    77  71  82 SW5       30.05F
BELLE CHASSE   CLEAR     72  70  93 CALM      30.05F
BOGALUSA*      FAIR      73  68  84 CALM      30.06F
GALLIANO*      SUNNY     67  65  94 CALM      30.05F
NEW ROADS*     FAIR      74  72  93 CALM      30.02F
GONZALES*      FAIR      72  72 100 CALM      30.03F
HAMMOND*       PTCLDY    73  68  83 CALM      30.03F
HOUMA*         CLEAR     72  72 100 CALM      30.05F FOG
PORT FOURCHON* SUNNY     79  70  73 CALM      30.05F

$$

LAZ041-044-053-054-300800-
SOUTHWEST LOUISIANA

CITY           SKY/WX    TMP DP  RH WIND       PRES   REMARKS
LAKE CHARLES   CLEAR     73  72  96 CALM      30.03F
LAFAYETTE      CLEAR     75  72  90 S5        30.03F
PATTERSON      CLEAR     72  72 100 CALM      30.04F
SALT POINT       N/A     75  74  96 CALM      30.03F
NEW IBERIA     CLEAR     73  71  93 SW5       30.04F
CHENAULT AIRPK NOT AVBL

$$

LAZ027-028-300800-
CENTRAL LOUISIANA

CITY           SKY/WX    TMP DP  RH WIND       PRES   REMARKS
FORT POLK      CLEAR     72  70  93 S3        30.02F
ALEXANDRIA INT CLEAR     71  70  96 CALM      30.01F
ALEXANDRIA     CLEAR     71  69  93 CALM      30.03F FOG

$$

LAZ001-002-300800-
NORTHWEST LOUISIANA

CITY           SKY/WX    TMP DP  RH WIND       PRES   REMARKS
SHREVEPORT     CLOUDY    73  65  75 E6        30.03F
BARKSDALE AFB  MOCLDY    70  66  85 NE3       30.03F
DTN SHREVEPORT CLOUDY    72  65  78 NE3       30.04F

$$

LAZ014-016-300800-
NORTHEAST LOUISIANA

CITY           SKY/WX    TMP DP  RH WIND       PRES   REMARKS
MONROE         CLOUDY    70  67  90 CALM      30.05F
TALLULAH       CLEAR     68  65  90 CALM      30.03F

$$




USA.gov is the U.S. government's official web portal to all federal, state and local government web resources and services.